Location: �chenoz-la-M�line
(47.6009°N, 6.1354°E)
Time: 09:22:02
(UTC+00:00)

Cosmos 1814 Rocket - Pass Details

Date: 09 May 2021
Orbit: 745 x 786 km, 74.1° (Epoch: 21 June)

Event Time Altitude Azimuth Distance (km) Brightness Sun altitude
Rises 20:35:33 0° 318° (NW) 3,239 9.3 -13.8°
Reaches altitude 10° 20:39:47 10° 285° (WNW) 2,294 7.4 -14.3°
Maximum altitude 20:41:16 11° 269° (W) 2,206 6.9 -14.4°
Drops below altitude 10° 20:42:44 10° 252° (WSW) 2,282 6.8 -14.6°
Sets 20:46:56 0° 219° (SW) 3,190 7.1 -15.1°
